Historyczne dane pomiarowe

Dodano dane terminowe – wersja testowa.

Dane z okresu 1951-2019

Wersja bazy: 1.34 [2019-03-16, lista zmian], aktualizacja planowana na 2019-04-15

Dane meteo z obszaru Polski uzyskane na podstawie danych udostępnionych przez Instytut Meteorologii i Gospodarki Wodnej – Państwowy Instytut Badawczy.

 

Wybierz Datę:    

       

TemperaturaWilgotnośćZachmurzenieWiatrCiśnienieWidzialnośćZjawiska
 Data    tng td wb rh cc ccl cl cm ch dir g1 g2 mslp ppp      
1973-05-12 00:00:00 -3.6--- -4.1 -3.697wxwx18wx--- 837.9 0.0---wx
1973-05-12 01:00:00 -3.4------wxwx16wx--- 838.0----wxw1
1973-05-12 02:00:00 -4.0------wxwx19wx--- 838.5----wxw1
1973-05-12 03:00:00 -4.2--- -4.7 -4.296wxwx18wx--- 838.3----wxw1
1973-05-12 04:00:00 -4.7------wxwx20wx--- 838.6----wxw1
1973-05-12 05:00:00 -4.8------wxwx16wx--- 839.1----wxw1
1973-05-12 06:00:00 -5.0--- -5.6 -5.095wxwxwx11wx--- 839.5 0.0---wxw1
1973-05-12 07:00:00 -5.2------wxwxwx10wx--- 840.0----wx
1973-05-12 08:00:00 -4.2------wxwxwx6wx--- 840.7----wx
1973-05-12 09:00:00 -2.8--- -4.4 -3.387wxwxwx6wx--- 841.2----wx
1973-05-12 10:00:00 -2.2------wxwxwxwx9wx--- 841.3----wx
1973-05-12 11:00:00 -1.4------wxwxwxwx9wx--- 841.3----wx
1973-05-12 12:00:00 -0.9--- -4.4 -2.376wxwxwxwx6wx--- 841.3 0.0---wx
1973-05-12 13:00:00 -0.6------wxwxwxwx9wx--- 841.3----wx
1973-05-12 14:00:00 0.2------wxwxwxwx7wx--- 841.2----wx
1973-05-12 15:00:00 0.3--- -6.0 -2.163wxwxwxwx13wx--- 841.2----wx
1973-05-12 16:00:00 -0.3------wxwxwxwx12wx--- 841.3----wx
1973-05-12 17:00:00 -0.6------wxwxwxwx12wx--- 841.3----wx
1973-05-12 18:00:00 -1.2--- -5.0 -2.674wxwxwx13wx--- 841.2 0.0---wx
1973-05-12 19:00:00 -1.6------wxwxwxwx12wx--- 841.3----wx
1973-05-12 20:00:00 -1.8------wxwxwxwx15wx--- 841.2----wx
1973-05-12 21:00:00 -1.2--- -5.4 -2.774wxwxwx15wx--- 841.1----wx
1973-05-12 22:00:00 -1.2------wxwxwxwx13wx--- 841.2----wx
1973-05-12 23:00:00 -1.4------wxwxwx15wx--- 841.2----wx

 

Źródłem pochodzenia danych jest Instytut Meteorologii i Gospodarki Wodnej – Państwowy Instytut Badawczy. Dane Instytutu Meteorologii i Gospodarki Wodnej – Państwowego Instytutu Badawczego zostały przetworzone.

Dane źródłowe można odnaleźć na stronie https://dane.imgw.pl